• In Deutschland
  • Länderverzeichnis
  • Für 7 Tage
  • Wassertemperatur
  • Satellitenkarten
  • Wetterkarte
  • Widgets
  • user-avatar
    Anmelden

    Stündliche Wetter Lörrach

    Heute, 22 September, Samstag

    Zeit Temperatur Niederschläge Wind Luftdruck Luftfeuchtigkeit
    00:00 +13°C° 0 mm 1 m/S 739 mmHg 92%
    01:00 +13°C° 0 mm 2 m/S 739 mmHg 92%
    02:00 +12°C° 0 mm 1 m/S 739 mmHg 92%
    03:00 +12°C° 0 mm 1 m/S 739 mmHg 92%
    04:00 +11°C° 0 mm 1 m/S 739 mmHg 93%
    05:00 +11°C° 0 mm 1 m/S 740 mmHg 92%
    06:00 +10°C° 0 mm 0 m/S 740 mmHg 91%
    07:00 +10°C° 0 mm 0 m/S 740 mmHg 90%
    08:00 +12°C° 0 mm 0 m/S 740 mmHg 81%
    09:00 +14°C° 0 mm 0 m/S 740 mmHg 71%
    10:00 +16°C° 0 mm 0 m/S 740 mmHg 62%
    11:00 +19°C° 0 mm 1 m/S 740 mmHg 55%
    12:00 +20°C° 0 mm 1 m/S 739 mmHg 49%
    13:00 +21°C° 0 mm 2 m/S 739 mmHg 42%
    14:00 +21°C° 0 mm 2 m/S 739 mmHg 43%
    15:00 +21°C° 0 mm 2 m/S 738 mmHg 43%
    16:00 +21°C° 0 mm 2 m/S 738 mmHg 43%
    17:00 +19°C° 0 mm 2 m/S 738 mmHg 48%
    18:00 +19°C° 0 mm 1 m/S 738 mmHg 53%
    19:00 +16°C° 0 mm 1 m/S 738 mmHg 57%
    20:00 +16°C° 0.1 mm 1 m/S 738 mmHg 59%
    21:00 +16°C° 0.1 mm 1 m/S 739 mmHg 61%
    22:00 +16°C° 0.1 mm 1 m/S 739 mmHg 62%
    23:00 +16°C° 0 mm 1 m/S 738 mmHg 63%

    Morgen, 23 September, Sonntag

    Zeit Temperatur Niederschläge Wind Luftdruck Luftfeuchtigkeit
    00:00 +16°C° 0 mm 2 m/S 738 mmHg 63%
    01:00 +16°C° 0 mm 2 m/S 738 mmHg 64%
    02:00 +16°C° 0 mm 2 m/S 737 mmHg 61%
    03:00 +17°C° 0 mm 3 m/S 737 mmHg 59%
    04:00 +18°C° 0 mm 3 m/S 737 mmHg 56%
    05:00 +18°C° 0 mm 3 m/S 737 mmHg 58%
    06:00 +18°C° 0 mm 3 m/S 737 mmHg 61%
    07:00 +18°C° 0 mm 3 m/S 737 mmHg 63%
    08:00 +19°C° 0 mm 3 m/S 737 mmHg 65%
    09:00 +20°C° 0 mm 4 m/S 737 mmHg 67%
    10:00 +20°C° 0 mm 4 m/S 737 mmHg 68%
    11:00 +22°C° 0 mm 5 m/S 736 mmHg 65%
    12:00 +25°C° 0 mm 5 m/S 736 mmHg 62%
    13:00 +27°C° 0 mm 6 m/S 736 mmHg 58%
    14:00 +27°C° 0 mm 6 m/S 735 mmHg 59%
    15:00 +26°C° 0 mm 7 m/S 735 mmHg 59%
    16:00 +26°C° 0 mm 7 m/S 734 mmHg 60%
    17:00 +24°C° 0.2 mm 7 m/S 734 mmHg 65%
    18:00 +23°C° 0.2 mm 7 m/S 734 mmHg 70%
    19:00 +22°C° 0.2 mm 6 m/S 734 mmHg 75%
    20:00 +20°C° 1.6 mm 6 m/S 735 mmHg 80%
    21:00 +17°C° 1.6 mm 6 m/S 736 mmHg 85%
    22:00 +16°C° 1.6 mm 6 m/S 737 mmHg 89%
    23:00 +14°C° 0.4 mm 5 m/S 738 mmHg 89%

    übermorgen, 24 September, Montag

    Zeit Temperatur Niederschläge Wind Luftdruck Luftfeuchtigkeit
    00:00 +13°C° 0.4 mm 4 m/S 739 mmHg 90%
    01:00 +12°C° 0.4 mm 2 m/S 740 mmHg 90%
    02:00 +10°C° 0 mm 2 m/S 741 mmHg 90%
    03:00 +10°C° 0 mm 2 m/S 742 mmHg 90%
    04:00 +9°C° 0 mm 2 m/S 742 mmHg 89%
    05:00 +10°C° 0 mm 1 m/S 743 mmHg 90%
    06:00 +9°C° 0 mm 1 m/S 743 mmHg 90%
    07:00 +9°C° 0 mm 1 m/S 744 mmHg 91%
    08:00 +9°C° 0 mm 2 m/S 744 mmHg 84%
    09:00 +10°C° 0 mm 3 m/S 744 mmHg 77%
    10:00 +12°C° 0 mm 3 m/S 745 mmHg 70%
    11:00 +13°C° 0 mm 3 m/S 745 mmHg 63%
    12:00 +14°C° 0 mm 4 m/S 745 mmHg 56%
    13:00 +15°C° 0 mm 4 m/S 745 mmHg 49%
    14:00 +15°C° 0 mm 4 m/S 745 mmHg 48%
    15:00 +15°C° 0 mm 4 m/S 745 mmHg 47%
    16:00 +15°C° 0 mm 4 m/S 745 mmHg 46%
    17:00 +14°C° 0 mm 4 m/S 745 mmHg 51%
    18:00 +12°C° 0 mm 3 m/S 745 mmHg 57%
    19:00 +10°C° 0 mm 3 m/S 745 mmHg 62%
    20:00 +10°C° 0 mm 3 m/S 746 mmHg 64%
    21:00 +9°C° 0 mm 3 m/S 746 mmHg 65%
    22:00 +8°C° 0 mm 3 m/S 746 mmHg 67%
    23:00 +8°C° 0 mm 3 m/S 746 mmHg 67%

    25 September, Dienstag

    Zeit Temperatur Niederschläge Wind Luftdruck Luftfeuchtigkeit
    00:00 +8°C° 0 mm 3 m/S 746 mmHg 67%
    01:00 +7°C° 0 mm 3 m/S 746 mmHg 68%
    02:00 +7°C° 0 mm 3 m/S 746 mmHg 69%
    03:00 +7°C° 0 mm 3 m/S 746 mmHg 70%
    04:00 +7°C° 0 mm 3 m/S 746 mmHg 71%
    05:00 +5°C° 0 mm 3 m/S 746 mmHg 73%
    06:00 +5°C° 0 mm 3 m/S 746 mmHg 74%
    07:00 +5°C° 0 mm 3 m/S 746 mmHg 76%
    08:00 +7°C° 0 mm 4 m/S 746 mmHg 68%
    09:00 +11°C° 0 mm 4 m/S 746 mmHg 60%
    10:00 +13°C° 0 mm 5 m/S 746 mmHg 51%
    11:00 +14°C° 0 mm 5 m/S 746 mmHg 48%
    12:00 +15°C° 0 mm 5 m/S 746 mmHg 45%
    13:00 +16°C° 0 mm 5 m/S 746 mmHg 41%
    14:00 +16°C° 0 mm 5 m/S 746 mmHg 42%
    15:00 +16°C° 0 mm 5 m/S 745 mmHg 42%
    16:00 +17°C° 0 mm 4 m/S 745 mmHg 43%
    17:00 +14°C° 0 mm 4 m/S 745 mmHg 49%
    18:00 +12°C° 0 mm 3 m/S 745 mmHg 56%
    19:00 +10°C° 0 mm 3 m/S 745 mmHg 62%
    20:00 +9°C° 0 mm 2 m/S 746 mmHg 65%
    21:00 +8°C° 0 mm 2 m/S 746 mmHg 69%
    22:00 +7°C° 0 mm 2 m/S 746 mmHg 72%
    23:00 +7°C° 0 mm 1 m/S 746 mmHg 73%

    26 September, Mittwoch

    Zeit Temperatur Niederschläge Wind Luftdruck Luftfeuchtigkeit
    00:00 +7°C° 0 mm 1 m/S 746 mmHg 74%
    01:00 +6°C° 0 mm 1 m/S 746 mmHg 76%
    02:00 +7°C° 0 mm 1 m/S 746 mmHg 76%
    03:00 +7°C° 0 mm 1 m/S 746 mmHg 76%
    04:00 +7°C° 0 mm 1 m/S 745 mmHg 76%
    05:00 +7°C° 0 mm 1 m/S 745 mmHg 75%
    06:00 +7°C° 0 mm 1 m/S 746 mmHg 75%
    07:00 +8°C° 0 mm 1 m/S 746 mmHg 74%
    08:00 +11°C° 0 mm 1 m/S 746 mmHg 66%
    09:00 +15°C° 0 mm 1 m/S 746 mmHg 58%
    10:00 +19°C° 0 mm 1 m/S 746 mmHg 50%
    11:00 +21°C° 0 mm 1 m/S 746 mmHg 47%
    12:00 +23°C° 0 mm 1 m/S 746 mmHg 44%
    13:00 +24°C° 0 mm 1 m/S 746 mmHg 41%
    14:00 +24°C° 0 mm 1 m/S 745 mmHg 42%
    15:00 +24°C° 0 mm 1 m/S 745 mmHg 43%
    16:00 +24°C° 0 mm 1 m/S 745 mmHg 44%
    17:00 +22°C° 0 mm 1 m/S 745 mmHg 53%
    18:00 +19°C° 0 mm 1 m/S 745 mmHg 62%
    19:00 +14°C° 0 mm 0 m/S 745 mmHg 72%
    20:00 +14°C° 0 mm 0 m/S 745 mmHg 74%
    21:00 +13°C° 0 mm 0 m/S 745 mmHg 77%
    22:00 +13°C° 0 mm 1 m/S 745 mmHg 79%
    23:00 +13°C° 0 mm 1 m/S 745 mmHg 80%

    27 September, Donnerstag

    Zeit Temperatur Niederschläge Wind Luftdruck Luftfeuchtigkeit
    00:00 +13°C° 0 mm 1 m/S 745 mmHg 80%
    01:00 +12°C° 0 mm 1 m/S 745 mmHg 81%
    02:00 +12°C° 0 mm 1 m/S 744 mmHg 81%
    03:00 +12°C° 0 mm 1 m/S 744 mmHg 81%
    04:00 +12°C° 0 mm 1 m/S 744 mmHg 82%
    05:00 +12°C° 0 mm 1 m/S 744 mmHg 81%
    06:00 +12°C° 0 mm 1 m/S 744 mmHg 81%
    07:00 +12°C° 0 mm 1 m/S 744 mmHg 80%
    08:00 +15°C° 0 mm 1 m/S 744 mmHg 70%
    09:00 +19°C° 0 mm 1 m/S 743 mmHg 61%
    10:00 +22°C° 0 mm 1 m/S 743 mmHg 51%
    11:00 +24°C° 0 mm 1 m/S 743 mmHg 47%
    12:00 +25°C° 0 mm 1 m/S 743 mmHg 44%
    13:00 +26°C° 0 mm 1 m/S 742 mmHg 40%
    14:00 +26°C° 0 mm 1 m/S 742 mmHg 41%
    15:00 +26°C° 0 mm 1 m/S 741 mmHg 43%
    16:00 +26°C° 0 mm 1 m/S 741 mmHg 44%
    17:00 +23°C° 0 mm 1 m/S 741 mmHg 53%
    18:00 +21°C° 0 mm 1 m/S 741 mmHg 61%
    19:00 +18°C° 0 mm 1 m/S 741 mmHg 70%
    20:00 +16°C° 0 mm 1 m/S 741 mmHg 73%
    21:00 +15°C° 0 mm 0 m/S 741 mmHg 75%
    22:00 +14°C° 0 mm 0 m/S 741 mmHg 78%
    23:00 +13°C° 0 mm 0 m/S 740 mmHg 79%
    Mehr zeigen